SPMBR EPKK-EPNT

Flight info

Callsign SPMBR
Flight time N/A
Altitude 1500
Route DCT AEPKK STAY1/0020 AEPKK DCT EPKKK DCT EPKKS DCT EPKKU DCT EPNTD DCT
Aircraft C150/L-OVYD/S

Departure

Time 2026-05-06 16:54
Airport Kraków John Paul II International Airport (EPKK)

Arrival

Time N/A
Airport Nowy Targ Airfield (EPNT)
Time Latitude Longitude Altitude Speed Heading
2026-05-06 16:20 50.07605 19.79451 773 ft 0 kts 347°
2026-05-06 16:21 50.07614 19.79519 772 ft 0 kts 347°
2026-05-06 16:39 50.07605 19.79451 773 ft 0 kts 347°
2026-05-06 16:46 50.07609 19.79449 773 ft 3 kts 347°
2026-05-06 16:47 50.07653 19.79455 771 ft 8 kts 50°
2026-05-06 16:47 50.07668 19.79548 769 ft 9 kts 77°
2026-05-06 16:47 50.07683 19.79653 769 ft 10 kts 77°
2026-05-06 16:47 50.07698 19.79766 768 ft 10 kts 79°
2026-05-06 16:48 50.07718 19.79904 765 ft 13 kts 77°
2026-05-06 16:48 50.07737 19.80039 765 ft 12 kts 77°
2026-05-06 16:48 50.07755 19.80164 765 ft 11 kts 75°
2026-05-06 16:48 50.07772 19.80292 765 ft 12 kts 77°
2026-05-06 16:49 50.07830 19.80341 767 ft 9 kts 341°
2026-05-06 16:49 50.07890 19.80321 767 ft 8 kts 348°
2026-05-06 16:49 50.07952 19.80300 768 ft 9 kts 347°
2026-05-06 16:49 50.08015 19.80262 769 ft 9 kts 289°
2026-05-06 16:50 50.08007 19.80166 770 ft 7 kts 259°
2026-05-06 16:50 50.07999 19.80117 770 ft 2 kts 256°
2026-05-06 16:50 50.07999 19.80111 770 ft 0 kts 257°
2026-05-06 16:50 50.07998 19.80107 770 ft 0 kts 257°
2026-05-06 16:51 50.07996 19.80095 770 ft 6 kts 259°
2026-05-06 16:51 50.07956 19.79783 769 ft 50 kts 256°
2026-05-06 16:51 50.07861 19.79113 824 ft 66 kts 265°
2026-05-06 16:51 50.07760 19.78462 976 ft 61 kts 264°
2026-05-06 16:52 50.07667 19.77768 1084 ft 59 kts 271°
2026-05-06 16:52 50.07565 19.77102 1071 ft 64 kts 265°
2026-05-06 16:52 50.07224 19.76686 1125 ft 65 kts 181°
2026-05-06 16:52 50.06827 19.76934 1157 ft 61 kts 145°
2026-05-06 16:53 50.06453 19.77324 1154 ft 69 kts 142°
2026-05-06 16:53 50.06067 19.77729 1206 ft 68 kts 143°
2026-05-06 16:53 50.05686 19.78158 1253 ft 70 kts 136°
2026-05-06 16:53 50.05317 19.78645 1299 ft 71 kts 134°
2026-05-06 16:54 50.04921 19.79132 1304 ft 77 kts 137°
2026-05-06 16:54 50.04475 19.79615 1348 ft 78 kts 146°
2026-05-06 16:54 50.03996 19.79959 1419 ft 75 kts 156°
2026-05-06 16:54 50.03482 19.80262 1440 ft 79 kts 158°
2026-05-06 16:55 50.02981 19.80491 1502 ft 75 kts 165°
2026-05-06 16:55 50.02494 19.80768 1512 ft 78 kts 154°
2026-05-06 16:55 50.01994 19.81071 1560 ft 80 kts 159°
2026-05-06 16:55 50.01440 19.81340 1576 ft 82 kts 166°
2026-05-06 16:56 50.00873 19.81597 1588 ft 83 kts 159°
2026-05-06 16:56 50.00322 19.81859 1609 ft 83 kts 162°
2026-05-06 16:56 49.99795 19.82094 1663 ft 78 kts 160°
2026-05-06 16:56 49.99237 19.82354 1631 ft 87 kts 166°
2026-05-06 16:57 49.98634 19.82551 1650 ft 86 kts 168°
2026-05-06 16:57 49.98062 19.82697 1742 ft 76 kts 171°
2026-05-06 16:57 49.97579 19.83003 1785 ft 76 kts 135°
2026-05-06 16:57 49.97372 19.83721 1811 ft 71 kts 75°
2026-05-06 16:58 49.97702 19.84110 1813 ft 67 kts 341°
2026-05-06 16:58 49.97890 19.83485 1888 ft 69 kts 257°
2026-05-06 16:58 49.97410 19.83145 1898 ft 77 kts 193°
2026-05-06 16:58 49.96878 19.82914 1888 ft 83 kts 201°
2026-05-06 16:59 49.96359 19.82479 1920 ft 81 kts 218°
2026-05-06 16:59 49.95886 19.82020 1970 ft 83 kts 219°
2026-05-06 16:59 49.95408 19.81490 2053 ft 76 kts 221°
2026-05-06 16:59 49.95026 19.81076 2127 ft 73 kts 223°
2026-05-06 17:00 49.94631 19.80593 2170 ft 72 kts 217°
2026-05-06 17:00 49.94162 19.80177 2151 ft 80 kts 209°
2026-05-06 17:00 49.93686 19.79842 2233 ft 76 kts 199°
2026-05-06 17:00 49.93195 19.79672 2265 ft 77 kts 194°
2026-05-06 17:01 49.92643 19.79512 2262 ft 80 kts 192°
2026-05-06 17:01 49.92098 19.79420 2295 ft 80 kts 182°
2026-05-06 17:01 49.91540 19.79342 2338 ft 80 kts 188°
2026-05-06 17:01 49.90986 19.79232 2407 ft 74 kts 188°
2026-05-06 17:02 49.90445 19.79171 2404 ft 80 kts 184°
2026-05-06 17:02 49.89916 19.79086 2489 ft 71 kts 185°
2026-05-06 17:02 49.89415 19.78979 2500 ft 75 kts 184°
2026-05-06 17:02 49.88873 19.78786 2520 ft 87 kts 193°
2026-05-06 17:03 49.88233 19.78550 2544 ft 102 kts 194°
2026-05-06 17:03 49.87569 19.78332 2589 ft 90 kts 190°
2026-05-06 17:03 49.86988 19.78131 2641 ft 80 kts 191°
2026-05-06 17:03 49.86425 19.77928 2644 ft 82 kts 189°
2026-05-06 17:04 49.85880 19.77733 2663 ft 81 kts 192°
2026-05-06 17:04 49.85349 19.77500 2692 ft 77 kts 196°
2026-05-06 17:04 49.84838 19.77336 2757 ft 71 kts 187°
2026-05-06 17:04 49.84430 19.77234 2877 ft 62 kts 182°
2026-05-06 17:05 49.83970 19.77130 2958 ft 72 kts 189°
2026-05-06 17:05 49.83461 19.76932 3044 ft 84 kts 194°
2026-05-06 17:05 49.82927 19.76738 3233 ft 49 kts 195°
2026-05-06 17:05 49.82771 19.76351 3005 ft 81 kts 244°
2026-05-06 17:06 49.82357 19.75784 3116 ft 88 kts 194°
2026-05-06 17:06 49.81705 19.75650 3152 ft 99 kts 187°
2026-05-06 17:06 49.81024 19.75594 3287 ft 96 kts 175°
2026-05-06 17:06 49.80355 19.75882 3373 ft 98 kts 166°
2026-05-06 17:07 49.79706 19.76159 3520 ft 97 kts 167°
2026-05-06 17:07 49.79122 19.76520 3829 ft 74 kts 152°
2026-05-06 17:07 49.78612 19.76960 3875 ft 89 kts 159°
2026-05-06 17:07 49.78060 19.77358 4033 ft 88 kts 157°
2026-05-06 17:08 49.77486 19.77732 4075 ft 96 kts 164°
2026-05-06 17:08 49.76828 19.77993 3769 ft 123 kts 171°
2026-05-06 17:08 49.76033 19.78192 3807 ft 116 kts 175°
2026-05-06 17:08 49.75259 19.78299 3970 ft 104 kts 178°